Location: Westminster
(33.3626°N, 96.4619°W)
Time: 06:25:48
(UTC+00:00)

Cosmos 1515 Rocket - Pass Details

Date: 26 June 2022
Orbit: 604 x 630 km, 82.5° (Epoch: 14 August)

Event Time Altitude Azimuth Distance (km) Brightness Sun altitude
Rises 09:50:55 0° 1° (N) 2,904 7.7 -15.6°
Reaches altitude 10° 09:53:14 10° 7° (N) 1,990 6.9 -15.3°
Maximum altitude 09:57:28 45° 81° (E) 843 4.7 -14.6°
Drops below altitude 10° 10:01:38 10° 154° (SSE) 1,962 6.0 -14.0°
Sets 10:03:54 0° 161° (SSE) 2,858 6.8 -13.6°
